Weather History for FBFT - November, 2012

Change the Weather History Date:

Tuesday, November 6, 2012

  Actual Average Record
Temperature  
Mean Temperature 78 °F -  
Max Temperature 100 °F 86 °F 100 °F (2005)
Min Temperature 57 °F 64 °F 41 °F (2001)
Cooling Degree Days 14    
Growing Degree Days 28 (Base 50)    
Moisture  
Dew Point 31 °F    
Average Humidity 16    
Maximum Humidity 33    
Minimum Humidity 4    
Precipitation  
Precipitation 0.00 in - - ()
Sea Level Pressure  
Sea Level Pressure 29.99 in    
Wind  
Wind Speed 5 mph ()    
Max Wind Speed 14 mph    
Max Gust Speed -    
Visibility 6.1 miles    
Events      
Averages and records for this station are not official NWS values.
T = Trace of Precipitation, MM = Missing Value Source: Averaged Metar Reports

Daily Weather History Graph

Daily Weather History Graph

Search for Another Location

Airport or City:

Trip Planner

Search our weather history database for the weather conditions in past years. The results will help you decide how hot, cold, wet, or windy it might be!

Date:

Astronomy

Nov. 06, 2012 Rise Set
Actual Time 5:24 AM CAT 6:23 PM CAT
Civil Twilight 5:00 AM CAT 6:46 PM CAT
Nautical Twilight 4:33 AM CAT 7:14 PM CAT
Astronomical Twilight 4:05 AM CAT 7:42 PM CAT
Moon No Moon Rise 11:16 AM CAT (11/6)
Length of Visible Light 13h 45m
Length of Day
12h 59m
Waning Gibbous, 56% of the Moon is Illuminated
Nov 6
Waning Gibbous
Nov 7
Last Quarter
Nov 14
New
Nov 20
First Quarter
Nov 28
Full

Hourly Weather History & Observations

Time (CAT) Temp. Dew Point Humidity Pressure Visibility Wind Dir Wind Speed Gust Speed Precip Events Conditions
12:00 AM 68.0 °F 30.2 °F 24% 30.01 in - Variable 2.3 mph - N/A   Clear
1:00 AM 64.4 °F 30.2 °F 28% 30.01 in - Variable 2.3 mph - N/A   Clear
2:00 AM 65 °F 33 °F 19%  in 6 mi NW 1.2 mph - -  
3:00 AM 62.6 °F 30.2 °F 30% 29.98 in - Variable 2.3 mph - N/A   Clear
4:00 AM 59.0 °F 28.4 °F 31% 29.98 in - NNW 3.5 mph - N/A   Clear
5:00 AM 57.2 °F 28.4 °F 33% 30.01 in - North 5.8 mph - N/A   Clear
6:00 AM 68.0 °F 30.2 °F 24% 30.04 in - NNW 5.8 mph - N/A   Clear
7:00 AM 78.8 °F 33.8 °F 20% 30.04 in - NNW 4.6 mph - N/A   Clear
8:00 AM 88 °F 32 °F 7%  in 6 mi North 12.7 mph - -  
8:00 AM 89.6 °F 32.0 °F 13% 30.04 in - North 13.8 mph - N/A   Clear
9:00 AM 93.2 °F 32.0 °F 11% 30.04 in - North 11.5 mph - N/A   Clear
10:00 AM 95.0 °F 30.2 °F 10% 30.04 in - North 9.2 mph - N/A   Clear
11:00 AM 95.0 °F 30.2 °F 10% 30.04 in 6.2 mi Variable 4.6 mph - N/A   Partly Cloudy
12:00 PM 96.8 °F 30.2 °F 10% 30.01 in 6.2 mi Variable 3.5 mph - N/A   Scattered Clouds
1:00 PM 98.6 °F 30.2 °F 9% 29.98 in 6.2 mi SE 12.7 mph - N/A   Scattered Clouds
2:00 PM 99 °F 31 °F 4%  in 6 mi East 4.6 mph - -   Partly Cloudy
2:00 PM 98.6 °F 30.2 °F 9% 29.95 in 6.2 mi Variable 5.8 mph - N/A   Scattered Clouds
3:00 PM 98.6 °F 32.0 °F 10% 29.92 in 6.2 mi Variable 6.9 mph - N/A   Scattered Clouds
4:00 PM 100.4 °F 28.4 °F 8% 29.92 in 6.2 mi Variable 4.6 mph - N/A   Scattered Clouds
5:00 PM 96.8 °F 30.2 °F 10% 29.92 in 6.2 mi East 10.4 mph - N/A   Scattered Clouds
6:00 PM 96.8 °F 28.4 °F 9% 29.95 in 6.2 mi East 6.9 mph - N/A   Partly Cloudy
8:00 PM 82 °F 32 °F 8%  in 6 mi NE 2.3 mph - -   Partly Cloudy
8:00 PM 80.6 °F 30.2 °F 16% 29.98 in - Variable 2.3 mph - N/A   Clear
9:00 PM 78.8 °F 30.2 °F 17% 29.98 in - North 4.6 mph - N/A   Clear
10:00 PM 77.0 °F 32.0 °F 19% 29.98 in - North 3.5 mph - N/A   Clear
11:00 PM 71.6 °F 32.0 °F 23% 29.98 in - Variable 2.3 mph - N/A   Clear